Location: Melbourne
(37.8170°S, 144.9670°E)
Time: 03:31:28
(UTC+10:00)

ERBS - Visible Passes

Search period start: 27 April 2017 00:00
Search period end: 07 May 2017 00:00
Orbit: 427 x 445 km, 57.0° (Epoch: 24 April)

Date Brightness Start Highest point End Pass type
(mag) Time Alt. Az. Time Alt. Az. Time Alt. Az.
29 Apr 4.7 06:02:56 10° S 06:05:33 19° SE 06:08:08 10° E visible
30 Apr 5.1 05:21:47 10° S 05:23:38 13° SSE 05:25:28 10° ESE visible
01 May 2.8 06:15:30 10° SW 06:19:01 63° SE 06:22:28 10° NE visible
02 May 3.7 05:35:06 19° SSW 05:37:13 37° SE 05:40:29 10° ENE visible
03 May 4.4 04:55:20 24° SE 04:55:20 24° SE 04:58:16 10° E visible
03 May 3.5 06:28:56 10° WSW 06:32:01 28° NW 06:35:03 10° N visible
04 May 5.9 04:15:40 10° ESE 04:15:40 10° ESE 04:15:46 10° ESE visible
04 May 2.6 05:49:02 31° WSW 05:50:21 50° NW 05:53:43 10° NNE visible
05 May 3.1 05:09:28 49° NE 05:09:28 49° NE 05:12:05 10° NE visible
06 May 5.6 04:29:57 12° ENE 04:29:57 12° ENE 04:30:11 10° ENE visible
06 May 4.5 06:03:20 12° NW 06:03:20 12° NW 06:04:29 10° NW visible
